• In Portugal
  • List of Countries
  • For 7 days
  • Water Temperature
  • Satellite Maps
  • Weather Map
  • Weather Widgets
  • user-avatar
    Login

    Hourly Weather Pegu

    Today, 20 June, Wednesday

    Time Temperature Precipitation Wind Pressure Humidity
    00:00 +34°C° 0 mm 5 mps 744 mmHg 64%
    01:00 +33°C° 0.2 mm 5 mps 744 mmHg 66%
    02:00 +33°C° 0.2 mm 5 mps 744 mmHg 68%
    03:00 +32°C° 0.2 mm 5 mps 744 mmHg 70%
    04:00 +32°C° 0 mm 5 mps 744 mmHg 71%
    05:00 +32°C° 0 mm 5 mps 745 mmHg 72%
    06:00 +32°C° 0 mm 5 mps 745 mmHg 72%
    07:00 +33°C° 0.1 mm 5 mps 745 mmHg 67%
    08:00 +35°C° 0.1 mm 5 mps 745 mmHg 62%
    09:00 +36°C° 0.1 mm 5 mps 746 mmHg 57%
    10:00 +37°C° 0.1 mm 5 mps 745 mmHg 53%
    11:00 +39°C° 0.1 mm 5 mps 745 mmHg 49%
    12:00 +39°C° 0 mm 6 mps 746 mmHg 47%
    13:00 +40°C° 0 mm 5 mps 745 mmHg 45%
    14:00 +40°C° 0 mm 5 mps 744 mmHg 43%
    15:00 +41°C° 0 mm 5 mps 744 mmHg 41%
    16:00 +40°C° 0 mm 4 mps 743 mmHg 43%
    17:00 +38°C° 0 mm 4 mps 743 mmHg 45%
    18:00 +38°C° 0 mm 4 mps 743 mmHg 48%
    19:00 +37°C° 0 mm 4 mps 744 mmHg 51%
    20:00 +36°C° 0 mm 5 mps 744 mmHg 54%
    21:00 +35°C° 0 mm 5 mps 745 mmHg 57%
    22:00 +35°C° 0 mm 5 mps 745 mmHg 60%
    23:00 +34°C° 0 mm 6 mps 745 mmHg 62%

    Tomorrow, 21 June, Thursday

    Time Temperature Precipitation Wind Pressure Humidity
    00:00 +33°C° 0 mm 6 mps 745 mmHg 65%
    01:00 +33°C° 0 mm 6 mps 745 mmHg 66%
    02:00 +32°C° 0 mm 5 mps 745 mmHg 68%
    03:00 +32°C° 0 mm 5 mps 745 mmHg 69%
    04:00 +32°C° 0 mm 5 mps 745 mmHg 70%
    05:00 +32°C° 0 mm 5 mps 746 mmHg 71%
    06:00 +30°C° 0 mm 5 mps 746 mmHg 72%
    07:00 +33°C° 0 mm 5 mps 746 mmHg 67%
    08:00 +34°C° 0 mm 5 mps 746 mmHg 62%
    09:00 +35°C° 0 mm 5 mps 747 mmHg 57%
    10:00 +36°C° 0 mm 5 mps 746 mmHg 54%
    11:00 +39°C° 0 mm 5 mps 746 mmHg 50%
    12:00 +40°C° 0 mm 5 mps 745 mmHg 46%
    13:00 +40°C° 0 mm 5 mps 745 mmHg 45%
    14:00 +40°C° 0 mm 5 mps 744 mmHg 45%
    15:00 +40°C° 0 mm 5 mps 743 mmHg 44%
    16:00 +39°C° 0.2 mm 5 mps 743 mmHg 47%
    17:00 +39°C° 0.2 mm 5 mps 743 mmHg 50%
    18:00 +38°C° 0.2 mm 6 mps 743 mmHg 52%
    19:00 +36°C° 0.1 mm 6 mps 744 mmHg 56%
    20:00 +35°C° 0.1 mm 7 mps 745 mmHg 59%
    21:00 +34°C° 0.1 mm 8 mps 745 mmHg 63%
    22:00 +33°C° 0 mm 7 mps 745 mmHg 65%
    23:00 +33°C° 0 mm 7 mps 745 mmHg 67%

    Day after tomorrow, 22 June, Friday

    Time Temperature Precipitation Wind Pressure Humidity
    00:00 +32°C° 0 mm 7 mps 745 mmHg 69%
    01:00 +32°C° 0 mm 7 mps 745 mmHg 70%
    02:00 +30°C° 0 mm 6 mps 745 mmHg 71%
    03:00 +30°C° 0 mm 6 mps 745 mmHg 73%
    04:00 +30°C° 0.1 mm 6 mps 745 mmHg 73%
    05:00 +30°C° 0.1 mm 6 mps 745 mmHg 73%
    06:00 +30°C° 0.1 mm 6 mps 746 mmHg 74%
    07:00 +32°C° 0 mm 6 mps 746 mmHg 70%
    08:00 +33°C° 0 mm 6 mps 746 mmHg 67%
    09:00 +34°C° 0 mm 6 mps 747 mmHg 63%
    10:00 +35°C° 0.1 mm 6 mps 746 mmHg 59%
    11:00 +36°C° 0.1 mm 5 mps 746 mmHg 55%
    12:00 +37°C° 0.1 mm 5 mps 746 mmHg 52%
    13:00 +37°C° 1.1 mm 5 mps 745 mmHg 52%
    14:00 +38°C° 1.1 mm 6 mps 744 mmHg 53%
    15:00 +38°C° 1.1 mm 6 mps 744 mmHg 53%
    16:00 +36°C° 0.8 mm 7 mps 744 mmHg 56%
    17:00 +35°C° 0.8 mm 7 mps 744 mmHg 60%
    18:00 +34°C° 0.8 mm 8 mps 744 mmHg 63%
    19:00 +33°C° 0.2 mm 8 mps 745 mmHg 66%
    20:00 +32°C° 0.2 mm 7 mps 745 mmHg 68%
    21:00 +30°C° 0.2 mm 7 mps 746 mmHg 71%
    22:00 +30°C° 0.1 mm 7 mps 746 mmHg 72%
    23:00 +29°C° 0.1 mm 6 mps 746 mmHg 74%

    23 June, Saturday

    Time Temperature Precipitation Wind Pressure Humidity
    00:00 +29°C° 0.1 mm 6 mps 745 mmHg 75%
    01:00 +29°C° 0 mm 6 mps 745 mmHg 76%
    02:00 +29°C° 0 mm 5 mps 745 mmHg 77%
    03:00 +29°C° 0 mm 5 mps 745 mmHg 78%
    04:00 +29°C° 0.1 mm 5 mps 745 mmHg 78%
    05:00 +29°C° 0.1 mm 5 mps 745 mmHg 78%
    06:00 +29°C° 0.1 mm 5 mps 745 mmHg 78%
    07:00 +29°C° 0 mm 5 mps 746 mmHg 75%
    08:00 +30°C° 0 mm 5 mps 746 mmHg 72%
    09:00 +32°C° 0 mm 5 mps 746 mmHg 69%
    10:00 +33°C° 0.3 mm 5 mps 746 mmHg 65%
    11:00 +34°C° 0.3 mm 5 mps 745 mmHg 62%
    12:00 +35°C° 0.3 mm 5 mps 745 mmHg 58%
    13:00 +35°C° 1.3 mm 6 mps 745 mmHg 58%
    14:00 +35°C° 1.3 mm 6 mps 744 mmHg 58%
    15:00 +36°C° 1.3 mm 7 mps 743 mmHg 57%
    16:00 +35°C° 0.7 mm 7 mps 743 mmHg 59%
    17:00 +34°C° 0.7 mm 7 mps 744 mmHg 62%
    18:00 +33°C° 0.7 mm 7 mps 744 mmHg 64%
    19:00 +32°C° 0 mm 7 mps 744 mmHg 67%
    20:00 +32°C° 0 mm 7 mps 745 mmHg 70%
    21:00 +30°C° 0 mm 7 mps 745 mmHg 73%
    22:00 +29°C° 0 mm 7 mps 745 mmHg 74%
    23:00 +29°C° 0 mm 6 mps 745 mmHg 76%

    24 June, Sunday

    Time Temperature Precipitation Wind Pressure Humidity
    00:00 +29°C° 0 mm 6 mps 745 mmHg 77%
    01:00 +29°C° 0 mm 6 mps 744 mmHg 77%
    02:00 +29°C° 0 mm 6 mps 744 mmHg 78%
    03:00 +28°C° 0 mm 5 mps 744 mmHg 79%
    04:00 +28°C° 0 mm 5 mps 744 mmHg 79%
    05:00 +28°C° 0 mm 5 mps 744 mmHg 79%
    06:00 +28°C° 0 mm 5 mps 745 mmHg 80%
    07:00 +29°C° 0 mm 5 mps 745 mmHg 77%
    08:00 +30°C° 0 mm 5 mps 745 mmHg 75%
    09:00 +30°C° 0 mm 5 mps 746 mmHg 73%
    10:00 +32°C° 0 mm 5 mps 745 mmHg 69%
    11:00 +33°C° 0 mm 5 mps 745 mmHg 65%
    12:00 +34°C° 0 mm 5 mps 745 mmHg 61%
    13:00 +35°C° 1 mm 6 mps 744 mmHg 61%
    14:00 +35°C° 1 mm 6 mps 744 mmHg 61%
    15:00 +35°C° 1 mm 7 mps 743 mmHg 60%
    16:00 +34°C° 0.6 mm 7 mps 743 mmHg 63%
    17:00 +33°C° 0.6 mm 7 mps 744 mmHg 65%
    18:00 +33°C° 0.6 mm 7 mps 744 mmHg 68%
    19:00 +32°C° 0.1 mm 7 mps 744 mmHg 70%
    20:00 +30°C° 0.1 mm 7 mps 745 mmHg 73%
    21:00 +29°C° 0.1 mm 7 mps 745 mmHg 75%
    22:00 +29°C° 0.1 mm 7 mps 745 mmHg 77%
    23:00 +29°C° 0.1 mm 7 mps 745 mmHg 78%

    25 June, Monday

    Time Temperature Precipitation Wind Pressure Humidity
    00:00 +28°C° 0.1 mm 6 mps 745 mmHg 79%
    01:00 +28°C° 0.1 mm 6 mps 744 mmHg 80%
    02:00 +28°C° 0.1 mm 6 mps 744 mmHg 80%
    03:00 +28°C° 0.1 mm 5 mps 744 mmHg 81%
    04:00 +28°C° 0.2 mm 5 mps 744 mmHg 81%
    05:00 +28°C° 0.2 mm 5 mps 744 mmHg 81%
    06:00 +28°C° 0.2 mm 5 mps 745 mmHg 81%
    07:00 +28°C° 0.7 mm 6 mps 745 mmHg 80%
    08:00 +29°C° 0.7 mm 6 mps 745 mmHg 79%
    09:00 +29°C° 0.7 mm 6 mps 746 mmHg 78%
    10:00 +29°C° 0.7 mm 6 mps 745 mmHg 77%
    11:00 +30°C° 0.7 mm 6 mps 745 mmHg 75%
    12:00 +30°C° 0.7 mm 6 mps 745 mmHg 74%
    13:00 +30°C° 0.7 mm 6 mps 745 mmHg 74%
    14:00 +30°C° 0.7 mm 6 mps 744 mmHg 74%
    15:00 +32°C° 0.7 mm 6 mps 744 mmHg 74%
    16:00 +30°C° 0.5 mm 6 mps 744 mmHg 75%
    17:00 +30°C° 0.5 mm 5 mps 744 mmHg 76%
    18:00 +30°C° 0.5 mm 5 mps 744 mmHg 77%
    19:00 +29°C° 0.4 mm 6 mps 745 mmHg 79%
    20:00 +29°C° 0.4 mm 6 mps 745 mmHg 80%
    21:00 +28°C° 0.4 mm 6 mps 745 mmHg 82%
    22:00 +28°C° 0.5 mm 6 mps 745 mmHg 82%
    23:00 +28°C° 0.5 mm 6 mps 745 mmHg 83%
    Show more